Bradshaw AFB, HI

3:07 PM HST on November 11, 2019 (GMT -1000)
Bradshaw Army Air Field

Weather History for PHSF - October, 2019

Change the Weather History Date:

Saturday, October 12, 2019

  Actual Average Record
Temperature  
Mean Temperature 58 °F -  
Max Temperature 73 °F 69 °F 80 °F (1973)
Min Temperature 44 °F 49 °F 40 °F (1973)
Degree Days  
Heating Degree Days 6    
Growing Degree Days 8 (Base 50)    
Moisture  
Dew Point 45 °F    
Average Humidity 67    
Maximum Humidity 100    
Minimum Humidity 28    
Precipitation  
Precipitation 0.00 in - - ()
Sea Level Pressure  
Sea Level Pressure 29.95 in    
Wind  
Wind Speed 10 mph (SE)    
Max Wind Speed 26 mph    
Max Gust Speed 36 mph    
Visibility 9 miles    
Events      
Averages and records for this station are not official NWS values.
T = Trace of Precipitation, MM = Missing Value Source: NWS Daily Summary

Daily Weather History Graph

Daily Weather History Graph

Search for Another Location

Airport or City:

Astronomy

Oct. 12, 2019 Rise Set
Actual Time 6:15 AM HST 6:01 PM HST
Civil Twilight 5:53 AM HST 6:23 PM HST
Nautical Twilight 5:28 AM HST 6:48 PM HST
Astronomical Twilight 5:02 AM HST 7:14 PM HST
Moon 5:47 PM HST 5:22 AM HST
Length of Visible Light 12h 29m
Length of Day
11h 45m
Waxing Gibbous, 99% of the Moon is Illuminated
Oct 12
Waxing Gibbous
Oct 13
Full
Oct 21
Last Quarter
Oct 27
New
Nov 4
First Quarter

Hourly Weather History & Observations

Time (HST) Temp. Windchill Dew Point Humidity Pressure Visibility Wind Dir Wind Speed Gust Speed Precip Events Conditions
12:58 AM 50.2 °F - 37.8 °F 62% 29.97 in 10.0 mi SSE 9.2 mph - N/A   Clear
1:58 AM 49.6 °F - 35.6 °F 59% 29.98 in 10.0 mi SSE 9.2 mph - N/A   Clear
2:58 AM 48.9 °F - 38.1 °F 66% 29.97 in 10.0 mi SSE 11.5 mph - N/A   Clear
3:58 AM 45.3 °F 43.0 °F 33.1 °F 62% 29.99 in 10.0 mi ESE 4.6 mph - N/A   Clear
4:58 AM 45.0 °F 40.6 °F 32.7 °F 62% 30.01 in 10.0 mi SSE 8.1 mph - N/A   Clear
5:58 AM 44.8 °F - 32.2 °F 61% 30.02 in 10.0 mi Calm Calm - N/A   Clear
6:58 AM 48.4 °F - 33.4 °F 56% 30.03 in 10.0 mi East 6.9 mph - N/A   Clear
7:58 AM 63.5 °F - 30.7 °F 29% 30.00 in 10.0 mi ENE 3.5 mph - N/A   Clear
8:58 AM 67.1 °F - 32.7 °F 28% 30.00 in 10.0 mi SSE 16.1 mph 26.5 mph N/A   Clear
9:58 AM 68.0 °F - 42.1 °F 39% 29.97 in 10.0 mi South 25.3 mph 34.5 mph N/A   Clear
10:58 AM 71.4 °F - 37.9 °F 30% 29.94 in 10.0 mi South 21.9 mph 32.2 mph N/A   Clear
11:58 AM 71.8 °F - 43.7 °F 36% 29.93 in 10.0 mi South 23.0 mph 34.5 mph N/A   Scattered Clouds
12:58 PM 72.5 °F - 47.8 °F 42% 29.92 in 10.0 mi South 19.6 mph 35.7 mph N/A   Clear
1:58 PM 73.0 °F - 46.0 °F 38% 29.90 in 10.0 mi South 19.6 mph 32.2 mph N/A   Partly Cloudy
2:58 PM 67.6 °F - 51.1 °F 55% 29.91 in 10.0 mi South 24.2 mph 34.5 mph N/A   Clear
3:58 PM 68.7 °F - 51.3 °F 54% 29.93 in 10.0 mi NW 12.7 mph 20.7 mph N/A   Clear
4:58 PM 63.0 °F - 56.7 °F 80% 29.95 in 10.0 mi NNW 6.9 mph - N/A   Clear
5:58 PM 59.4 °F - 54.3 °F 83% 29.98 in 10.0 mi Calm Calm - N/A   Partly Cloudy
6:58 PM 56.8 °F - 54.1 °F 91% 29.97 in 10.0 mi Calm Calm - N/A   Partly Cloudy
7:23 PM 55.4 °F - 55.4 °F 100% 29.96 in 10.0 mi Calm Calm - N/A   Mostly Cloudy
7:58 PM 56.3 °F - 55.0 °F 96% 29.94 in 10.0 mi Calm Calm - N/A   Overcast
8:03 PM 55.4 °F - 55.4 °F 100% 29.94 in 10.0 mi East 3.5 mph - N/A   Overcast
8:23 PM 55.4 °F - 55.4 °F 100% 29.94 in 3.0 mi East 4.6 mph - N/A   Overcast
8:28 PM 55.4 °F - 53.6 °F 94% 29.94 in 1.0 mi NE 4.6 mph - N/A   Overcast
8:33 PM 53.6 °F - 53.6 °F 100% 29.95 in 1.0 mi East 4.6 mph - N/A   Mist
8:38 PM 53.6 °F - 51.8 °F 94% 29.95 in 2.8 mi NNE 6.9 mph - N/A   Mostly Cloudy
8:43 PM 51.8 °F - 51.8 °F 100% 29.95 in 10.0 mi East 5.8 mph - N/A   Scattered Clouds
8:58 PM 59.2 °F - 42.8 °F 55% 29.93 in 10.0 mi SE 16.1 mph 23.0 mph N/A   Partly Cloudy
9:58 PM 57.0 °F - 43.0 °F 59% 29.93 in 10.0 mi SE 12.7 mph 19.6 mph N/A   Clear
10:04 PM 57.2 °F - 44.6 °F 63% 29.92 in 10.0 mi South 17.3 mph 23.0 mph N/A   Clear
10:58 PM 55.6 °F - 51.1 °F 85% 29.90 in 10.0 mi South 26.5 mph 35.7 mph N/A   Clear
11:58 PM 57.6 °F - 50.7 °F 78% 29.89 in 10.0 mi South 19.6 mph 29.9 mph N/A   Clear